IRS-P5 (CARTOSAT-1)     
1 28649U 05017A   19258.80546973  .00000025  00000-0  94180-5 0  9993
2 28649  97.8480 328.0306 0000253 324.0724  36.0462 14.83651068777645
HAMSAT (VO-52)          
1 28650U 05017B   19258.90275475  .00000154  00000-0  22168-4 0  9991
2 28650  97.7589 221.3007 0022053 298.5325  61.3672 14.89168298778226
PSLV R/B                
1 28651U 05017C   19258.79003894  .00000028  00000-0  12243-4 0  9996
2 28651  97.9332 177.2901 0073321 326.4689  33.1889 14.73488561771394
PSLV DEB                
1 38842U 05017F   19258.12496622  .00000301  00000-0  42655-4 0  9995
2 38842  98.0204 209.5059 0060763 232.1394 186.1348 14.83351761487645